• Processing (Info)

  • MPEC 2023-M153 : 2023 MM5

    The following Minor Planet Electronic Circular may be linked-to from your own Web pages, but must not otherwise be redistributed electronically.

    A form allowing access to any MPEC is at the bottom of this page.


    Read MPEC 2023-M152 Read MPEC 2023-M154


    M.P.E.C. 2023-M153                                Issued 2023 June 28, 11:24 UT
    
         The Minor Planet Electronic Circulars contain information on unusual
             minor planets, routine data on comets and natural satellites,
             and occasional editorial announcements.  They are published
        on behalf of Division F of the International Astronomical Union by the
              Minor Planet Center, Smithsonian Astrophysical Observatory,
                              Cambridge, MA 02138, U.S.A.
    			  
                 Prepared using the Tamkin Foundation Computer Network
    
                                  MPC@CFA.HARVARD.EDU
                URL https://www.minorplanetcenter.net/    ISSN 1523-6714
    
                                    2023 MM5                                 
    
    
    Observations:
         K23M05M  C2023 06 26.39736518 39 55.019+47 48 57.49         20.53GVEM153F52
         K23M05M  C2023 06 26.41010918 39 46.773+47 53 56.98         19.69GVEM153F52
         K23M05M  C2023 06 26.42285318 39 38.528+47 58 55.71         20.29GVEM153F52
         K23M05M  C2023 06 26.46213818 39 12.858+48 14 15.26         19.46GVEM153F52
         K23M05M  C2023 06 27.45018118 28 11.626+54 20 16.15         19.86GVEM153F52
         K23M05M  C2023 06 27.46301918 28 01.602+54 24 46.41         19.76GVEM153F52
         K23M05M* C2023 06 27.47590518 27 51.543+54 29 16.54         19.97wXEM153F52
         K23M05M  C2023 06 27.48879918 27 41.487+54 33 46.13         20.20wXEM153F52
         K23M05M  C2023 06 27.55008118 26 53.556+54 54 57.39         20.27GVEM153F52
         K23M05M  C2023 06 27.55071718 26 53.044+54 55 10.36         20.56GVEM153F52
         K23M05M 1C2023 06 27.55467418 26 49.864+54 56 32.35         20.01GVEM153T12
         K23M05M 1C2023 06 27.55552418 26 49.182+54 56 49.86         20.28GVEM153T12
         K23M05M 1C2023 06 27.55641418 26 48.488+54 57 08.34         20.41GVEM153T12
         K23M05M 1C2023 06 27.55786418 26 47.363+54 57 38.01         20.32GVEM153T12
         K23M05M KC2023 06 27.92774 18 22 08.72 +57 02 52.5          20.3 GVEM153204
         K23M05M KC2023 06 28.30885118 16 50.603+59 06 32.76         20.26GVEM153I52
         K23M05M KC2023 06 28.30958218 16 49.984+59 06 46.51         20.70GVEM153I52
         K23M05M KC2023 06 28.31030618 16 49.274+59 07 00.44         21.14GVEM153I52
         K23M05M KC2023 06 28.31103018 16 48.652+59 07 14.30         20.34GVEM153I52
    
    Observer details:
    204 Schiaparelli Observatory.  Observer L. Buzzi.  0.84-m f/3.5 reflector +
        CCD.
    F52 Pan-STARRS 2, Haleakala.  Observers J. Bulger, K. Chambers, T. Dukes, T.
        Lowe, P. Minguez, A. Schultz, I. Smith.  Measurers S. Chastel, J.
        Fairlamb, M. Huber, Y. Ramanjooloo, R. Wainscoat, R. Weryk, K. Chambers,
        T. de Boer, J. Bulger, H. Gao, C.-C. Lin, T. Lowe, E. Magnier, P. Minguez,
        A. Schultz, I. Smith.  1.8-m Ritchey-Chretien + CCD.
    I52 Steward Observatory, Mt. Lemmon Station.  Observer J. K. Hogan.  Measurers
        E. J. Christensen, D. Fay, J. B. Fazekas, D. C. Fuls, A. R. Gibbs, A. D.
        Grauer, H. Groeller, J. K. Hogan, R. A. Kowalski, S. M. Larson, G. J.
        Leonard, D. Rankin, R. L. Seaman, A. Serrano, F. C. Shelly, K. W.
        Wierzchos.  1.0-m prime focus + CCD.
    T12 University of Hawaii 88-inch telescope, Maunakea.  Observer J. Fairlamb.
        Measurers R. Weryk, J. Fairlamb, Y. Ramanjooloo, R. Wainscoat.  2.24-m
        University of Hawaii reflector + CCD.
    
    Orbital elements:
    2023 MM5                                                 Earth MOID = 0.0244 AU
    Epoch 2023 Feb. 25.0 TT = JDT 2460000.5                 Veres                   
    M 275.62545              (2000.0)            P               Q                  
    n   0.47566557     Peri.  100.47997     +0.77899051     -0.09140142             
    a   1.6253051      Node   267.02987     -0.11294228     +0.95268504             
    e   0.5922354      Incl.   38.40182     +0.61678022     +0.28989136             
    P   2.07           H   22.37          G   0.15           U   9                  
    Residuals in seconds of arc
    230626 F52  0.1-  0.5+    230627 F52  0.0   0.1+    230627 204  0.2+  0.1-
    230626 F52  0.1-  0.0     230627 F52  0.1+  0.2+    230628 I52  0.3-  0.1+
    230626 F52  0.2+  0.7-    230627 F52  0.1-  0.0     230628 I52  0.1+  0.0
    230626 F52  0.0   0.1+    230627 T12  0.1+  0.2+    230628 I52  0.3-  0.2+
    230627 F52  0.1+  0.3-    230627 T12  0.1-  0.2+    230628 I52  0.1-  0.4+
    230627 F52  0.1-  0.1+    230627 T12  0.1-  0.4+
    230627 F52  0.1-  0.1+    230627 T12  0.0   0.2+
    
    Ephemeris:
    2023 MM5                 a,e,i = 1.63, 0.59, 38                  q = 0.6627
    Date    TT    R. A. (2000) Decl.     Delta      r    Elong.  Phase     V
    2023 05 29    19 46 00.8 -42 08 20   0.4219  1.3359   132.7    33.9    22.5
    ...
    2023 06 13    19 38 29.3 -24 24 44   0.2020  1.1932   149.0    26.0    20.5
    ...
    2023 06 21    19 16 24.5 +09 35 32   0.1224  1.1147   141.6    34.5    19.5
    ...
    2023 06 27    18 33 28.5 +51 37 14   0.1237  1.0553   105.0    68.5    20.4
    2023 06 28    18 21 09.5 +57 26 17   0.1300  1.0453    99.2    73.7    20.6
    2023 06 29    18 06 14.9 +62 34 01   0.1377  1.0354    94.0    78.3    20.9
    ...
    2023 07 05    14 54 53.5 +79 25 48   0.2003  0.9762    72.7    96.0    22.3
    ...
    2023 07 13    10 26 15.4 +76 33 40   0.3020  0.8987    58.9   104.3    23.4
    ...
    2023 07 28    08 54 43.5 +66 05 35   0.5036  0.7677    47.2   104.1    24.1
    
    M. P. C. Staff               (C) Copyright 2023 MPC           M.P.E.C. 2023-M153
    


    Read MPEC 2023-M152 Read MPEC 2023-M154


    MPEC number:

    Enter an MPEC number in one of the following forms:

    • 1997-B01 (the full form)
    • J97B01 (the packed version of the full form)
    • B01 (the abbreviated form)